Weather History for KCNB - July, 2013

Change the Weather History Date:

Tuesday, July 9, 2013

  Actual Average (KMML) Record (KMML)
Temperature  
Mean Temperature 73 °F -  
Max Temperature 82 °F 84 °F 102 °F (1989)
Min Temperature 64 °F 61 °F 47 °F (1953)
Cooling Degree Days 8    
Growing Degree Days 23 (Base 50)    
Moisture  
Dew Point 66 °F    
Average Humidity 77    
Maximum Humidity 95    
Minimum Humidity 57    
Precipitation  
Precipitation 0.54 in - - ()
Sea Level Pressure  
Sea Level Pressure 29.92 in    
Wind  
Wind Speed 8 mph (WNW)    
Max Wind Speed 20 mph    
Max Gust Speed 40 mph    
Visibility 10 miles    
Events Rain , Thunderstorm    
Averages and records for this station are not official NWS values.
T = Trace of Precipitation, MM = Missing Value Source: NWS Daily Summary

Daily Weather History Graph

Daily Weather History Graph

Search for Another Location

Airport or City:

Trip Planner

Search our weather history database for the weather conditions in past years. The results will help you decide how hot, cold, wet, or windy it might be!

Date:

Astronomy

Jul. 09, 2013 Rise Set
Actual Time 5:48 AM CDT 9:11 PM CDT
Civil Twilight 5:12 AM CDT 9:47 PM CDT
Nautical Twilight 4:25 AM CDT 10:34 PM CDT
Astronomical Twilight 3:25 AM CDT 11:34 PM CDT
Moon 7:20 AM CDT (7/9) 9:42 PM CDT (7/9)
Length of Visible Light 16h 35m
Length of Day
15h 22m
New Moon, 2% of the Moon is Illuminated
Jul 9
New Moon
Jul 15
First Quarter
Jul 22
Full
Jul 29
Last Quarter
Aug 6
New

Hourly Weather History & Observations

Time (CDT) Temp. Heat Index Dew Point Humidity Pressure Visibility Wind Dir Wind Speed Gust Speed Precip Events Conditions
12:15 AM 73.0 °F - 67.8 °F 84% 29.94 in 10.0 mi Calm Calm - N/A   Scattered Clouds
12:35 AM 72.7 °F - 67.3 °F 83% 29.93 in 10.0 mi SE 3.5 mph - N/A   Scattered Clouds
12:54 AM 72.1 °F - 67.3 °F 85% 29.93 in 10.0 mi SE 4.6 mph - N/A   Clear
1:14 AM 72.0 °F - 68.0 °F 87% 29.92 in 10.0 mi SE 4.6 mph - N/A   Scattered Clouds
1:35 AM 72.5 °F - 68.0 °F 86% 29.91 in 10.0 mi SE 3.5 mph - N/A   Scattered Clouds
1:54 AM 71.6 °F - 67.8 °F 88% 29.90 in 10.0 mi SE 5.8 mph - N/A   Scattered Clouds
2:14 AM 71.8 °F - 68.0 °F 88% 29.89 in 10.0 mi SE 4.6 mph - N/A   Clear
2:35 AM 70.9 °F - 67.5 °F 89% 29.89 in 10.0 mi SE 5.8 mph - N/A   Clear
2:55 AM 70.9 °F - 67.6 °F 89% 29.87 in 10.0 mi SE 5.8 mph - N/A   Clear
3:15 AM 71.1 °F - 68.0 °F 90% 29.86 in 10.0 mi SSE 4.6 mph - N/A   Scattered Clouds
3:34 AM 71.6 °F - 68.0 °F 88% 29.86 in 10.0 mi SE 4.6 mph - N/A   Mostly Cloudy
3:55 AM 72.5 °F - 68.0 °F 86% 29.88 in 10.0 mi Calm Calm - N/A   Scattered Clouds
4:14 AM 71.8 °F - 68.2 °F 88% 29.86 in 10.0 mi SSE 3.5 mph - N/A Thunderstorm Mostly Cloudy
4:34 AM 71.8 °F - 68.4 °F 89% 29.86 in 7.0 mi South 3.5 mph - N/A Rain , Thunderstorm Light Thunderstorms and Rain
4:55 AM 65.8 °F - 62.2 °F 88% 29.93 in 3.0 mi WNW 17.3 mph 40.3 mph 0.13 in Rain , Thunderstorm Heavy Thunderstorms and Rain
5:14 AM 64.6 °F - 63.1 °F 95% 29.91 in 2.0 mi West 16.1 mph 20.7 mph 0.32 in Rain , Thunderstorm Heavy Thunderstorms and Rain
5:34 AM 66.0 °F - 63.5 °F 92% 29.91 in 10.0 mi West 11.5 mph - 0.37 in Rain , Thunderstorm Light Thunderstorms and Rain
5:55 AM 66.7 °F - 63.7 °F 90% 29.89 in 10.0 mi WSW 6.9 mph - 0.38 in Rain , Thunderstorm Rain
6:15 AM 67.3 °F - 63.7 °F 88% 29.85 in 10.0 mi South 8.1 mph - 0.01 in Rain Light Rain
6:35 AM 66.7 °F - 63.9 °F 90% 29.80 in 10.0 mi SSE 6.9 mph 10.4 mph 0.03 in Rain Light Rain
6:54 AM 66.4 °F - 63.5 °F 90% 29.78 in 10.0 mi South 6.9 mph - 0.03 in   Scattered Clouds
7:15 AM 66.6 °F - 63.7 °F 90% 29.78 in 10.0 mi SSW 5.8 mph - N/A   Clear
7:35 AM 67.3 °F - 63.9 °F 89% 29.81 in 4.0 mi WSW 4.6 mph - N/A   Clear
7:55 AM 68.0 °F - 64.2 °F 88% 29.82 in 10.0 mi West 3.5 mph - N/A   Clear
8:15 AM 68.9 °F - 65.3 °F 88% 29.83 in 10.0 mi West 5.8 mph - N/A   Clear
8:34 AM 69.3 °F - 65.5 °F 88% 29.84 in 10.0 mi West 5.8 mph - N/A   Clear
8:55 AM 72.1 °F - 66.7 °F 83% 29.87 in 10.0 mi NW 10.4 mph - N/A   Clear
9:15 AM 72.9 °F - 66.6 °F 81% 29.88 in 10.0 mi WNW 13.8 mph - N/A   Clear
9:34 AM 73.8 °F - 66.9 °F 79% 29.88 in 10.0 mi West 13.8 mph - N/A   Clear
9:55 AM 74.7 °F - 66.9 °F 77% 29.89 in 10.0 mi WNW 17.3 mph - N/A   Clear
10:14 AM 75.6 °F - 66.0 °F 72% 29.89 in 10.0 mi West 19.6 mph 27.6 mph N/A   Clear
10:35 AM 76.1 °F - 66.4 °F 72% 29.91 in 10.0 mi WNW 17.3 mph 25.3 mph N/A   Clear
10:54 AM 76.3 °F - 66.7 °F 72% 29.90 in 10.0 mi WNW 18.4 mph 23.0 mph N/A   Clear
11:15 AM 76.1 °F - 65.8 °F 70% 29.91 in 10.0 mi West 19.6 mph 27.6 mph N/A   Clear
11:34 AM 76.5 °F - 66.6 °F 71% 29.91 in 10.0 mi West 16.1 mph 24.2 mph N/A   Scattered Clouds
11:55 AM 77.0 °F - 66.2 °F 69% 29.91 in 10.0 mi West 16.1 mph 20.7 mph N/A   Scattered Clouds
12:15 PM 77.4 °F - 67.5 °F 71% 29.92 in 10.0 mi West 11.5 mph - N/A   Scattered Clouds
12:35 PM 77.9 °F - 66.7 °F 68% 29.92 in 10.0 mi West 13.8 mph 23.0 mph N/A   Scattered Clouds
12:55 PM 78.8 °F - 66.7 °F 66% 29.91 in 10.0 mi West 15.0 mph 20.7 mph N/A   Clear
1:14 PM 79.3 °F - 66.9 °F 66% 29.91 in 10.0 mi West 15.0 mph 21.9 mph N/A   Clear
1:34 PM 80.2 °F 82.8 °F 67.8 °F 66% 29.91 in 10.0 mi West 16.1 mph 21.9 mph N/A   Clear
1:55 PM 80.4 °F 82.8 °F 67.3 °F 64% 29.92 in 10.0 mi WNW 12.7 mph - N/A   Clear
2:15 PM 81.3 °F 84.0 °F 67.5 °F 63% 29.92 in 10.0 mi WNW 13.8 mph 21.9 mph N/A   Scattered Clouds
2:34 PM 81.9 °F 84.4 °F 67.1 °F 61% 29.92 in 10.0 mi WNW 18.4 mph 23.0 mph N/A   Scattered Clouds
2:54 PM 82.4 °F 84.8 °F 66.7 °F 59% 29.92 in 10.0 mi WNW 17.3 mph 24.2 mph N/A   Scattered Clouds
3:15 PM 80.8 °F 82.9 °F 66.4 °F 61% 29.93 in 10.0 mi NW 13.8 mph 17.3 mph N/A   Scattered Clouds
3:35 PM 81.7 °F 83.8 °F 66.2 °F 59% 29.93 in 10.0 mi WNW 16.1 mph 21.9 mph N/A   Scattered Clouds
3:55 PM 82.6 °F 85.1 °F 66.9 °F 59% 29.93 in 10.0 mi NW 12.7 mph 17.3 mph N/A   Mostly Cloudy
4:15 PM 80.2 °F 82.2 °F 65.8 °F 61% 29.93 in 10.0 mi NW 11.5 mph 18.4 mph N/A   Scattered Clouds
4:34 PM 81.9 °F 84.2 °F 66.6 °F 60% 29.94 in 10.0 mi WNW 9.2 mph 21.9 mph N/A   Mostly Cloudy
4:54 PM 82.4 °F 84.4 °F 65.7 °F 57% 29.94 in 10.0 mi WNW 10.4 mph 19.6 mph N/A   Scattered Clouds
5:14 PM 81.9 °F 84.1 °F 66.4 °F 59% 29.94 in 10.0 mi WNW 10.4 mph - N/A   Scattered Clouds
5:35 PM 80.4 °F 82.4 °F 65.7 °F 61% 29.94 in 10.0 mi NW 12.7 mph 17.3 mph N/A   Scattered Clouds
5:55 PM 82.4 °F 84.6 °F 66.2 °F 58% 29.95 in 10.0 mi WNW 9.2 mph 16.1 mph N/A   Scattered Clouds
6:14 PM 81.7 °F 83.8 °F 66.0 °F 59% 29.95 in 10.0 mi WNW 12.7 mph 17.3 mph N/A   Clear
6:34 PM 81.0 °F 83.0 °F 66.0 °F 60% 29.95 in 10.0 mi WNW 11.5 mph - N/A   Clear
6:55 PM 79.5 °F - 66.9 °F 65% 29.95 in 10.0 mi NW 9.2 mph - N/A   Scattered Clouds
7:14 PM 78.8 °F - 66.4 °F 66% 29.95 in 10.0 mi NW 6.9 mph - N/A   Scattered Clouds
7:35 PM 78.4 °F - 66.2 °F 66% 29.96 in 10.0 mi NNW 10.4 mph 17.3 mph N/A   Scattered Clouds
7:54 PM 78.1 °F - 65.5 °F 65% 29.96 in 10.0 mi NNW 12.7 mph 18.4 mph N/A   Scattered Clouds
8:15 PM 77.0 °F - 64.4 °F 65% 29.97 in 10.0 mi NW 9.2 mph - N/A   Clear
8:34 PM 75.0 °F - 65.3 °F 72% 29.96 in 10.0 mi NW 4.6 mph - N/A   Clear
8:55 PM 72.5 °F - 65.7 °F 79% 29.97 in 10.0 mi WNW 5.8 mph - N/A   Clear
9:14 PM 70.7 °F - 66.2 °F 86% 29.98 in 10.0 mi NW 5.8 mph - N/A   Clear
9:34 PM 70.7 °F - 65.3 °F 83% 29.99 in 10.0 mi NNW 11.5 mph - N/A   Clear
9:54 PM 71.2 °F - 65.3 °F 81% 30.00 in 10.0 mi NNW 8.1 mph 16.1 mph N/A   Scattered Clouds
10:15 PM 69.4 °F - 65.3 °F 87% 30.01 in 10.0 mi NNW 5.8 mph - N/A   Clear
10:35 PM 69.1 °F - 64.4 °F 85% 30.03 in 10.0 mi NW 5.8 mph - N/A   Clear
10:54 PM 68.0 °F - 63.9 °F 87% 30.03 in 10.0 mi NNW 8.1 mph - N/A   Clear
11:15 PM 67.5 °F - 62.6 °F 84% 30.04 in 10.0 mi NNW 9.2 mph - N/A   Clear
11:35 PM 66.6 °F - 61.9 °F 85% 30.04 in 10.0 mi NNW 5.8 mph - N/A   Clear
11:54 PM 65.7 °F - 62.1 °F 88% 30.05 in 10.0 mi NW 5.8 mph - N/A   Clear